EW2958 Weather Reports


Display with metric or nautical units.
time (UTC)temp
F
wind
direction
speed
MPH
gust
MPH
rain 1hr
in
rain 24hr
in
rain mn
in
humidity
%
barometer
mb
20260510174513 43 274 1.0 2.0 0.00 0.01 0.01 91 1031.3
20260510173011 43 300 1.0 3.0 0.00 0.01 0.01 91 1031.3
20260510171512 43 291 0.0 3.0 0.00 0.01 0.01 91 1031.3
20260510170007 44 283 0.0 2.0 0.01 0.01 0.01 90 1031.4
20260510164507 44 304 1.0 2.0 0.01 0.01 0.01 90 1031.4
20260510163002 44 288 0.0 3.0 0.01 0.01 0.01 90 1031.4
20260510161559 45 293 0.0 2.0 0.01 0.01 0.01 90 1031.6
20260510160118 45 281 0.0 2.0 0.00 0.00 0.00 89 1031.5
20260510154604 47 285 1.0 2.0 0.00 0.00 0.00 89 1031.5
20260510153050 48 287 0.0 2.0 0.00 0.00 0.00 90 1031.6
20260510151548 49 290 1.0 3.0 0.00 0.00 0.00 89 1031.6
20260510150046 50 94 0.0 0.0 0.00 0.00 0.00 90 1031.6
20260510144553 50 94 0.0 0.0 0.00 0.00 0.00 89 1031.7
20260510143044 51 94 0.0 0.0 0.00 0.00 0.00 89 1031.7
20260510141543 51 94 0.0 0.0 0.00 0.00 0.00 90 1031.7
20260510140041 50 94 0.0 0.0 0.00 0.00 0.00 89 1031.6
20260510134548 50 94 0.0 0.0 0.00 0.00 0.00 89 1031.6
20260510133037 51 94 0.0 0.0 0.00 0.00 0.00 88 1031.5
20260510131538 51 94 0.0 0.0 0.00 0.00 0.00 88 1031.6
20260510130033 51 91 0.0 0.0 0.00 0.00 0.00 87 1031.7
20260510124532 52 91 0.0 0.0 0.00 0.00 0.00 87 1031.9
20260510123035 52 91 0.0 0.0 0.00 0.00 0.00 87 1031.8
20260510121531 53 91 0.0 0.0 0.00 0.00 0.00 87 1031.8
20260510120031 53 91 0.0 0.0 0.00 0.00 0.00 87 1031.9
20260510114530 54 91 0.0 0.0 0.00 0.00 0.00 86 1031.9
20260510113029 53 91 0.0 0.0 0.00 0.00 0.00 85 1031.7
20260510111528 54 91 0.0 0.0 0.00 0.00 0.00 85 1031.7
20260510110034 54 91 0.0 1.0 0.00 0.00 0.00 83 1031.4
20260510104524 55 94 0.0 1.0 0.00 0.00 0.00 83 1031.4
20260510103025 56 71 1.0 2.0 0.00 0.00 0.00 83 1031.3
20260510101523 56 153 0.0 0.0 0.00 0.00 0.00 83 1031.4
20260510100023 56 153 0.0 0.0 0.00 0.00 0.00 83 1031.3
20260510094540 56 153 0.0 0.0 0.00 0.00 0.00 83 1031.3
20260510093111 56 153 0.0 0.0 0.00 0.00 0.00 83 1031.3
20260510091549 56 153 0.0 0.0 0.00 0.00 0.00 83 1031.1
20260510090048 56 153 0.0 0.0 0.00 0.00 0.00 83 1031.1
20260510084547 56 153 0.0 0.0 0.00 0.00 0.00 82 1030.9
20260510083047 56 153 0.0 0.0 0.00 0.00 0.00 82 1030.8
20260510081547 57 153 0.0 0.0 0.00 0.00 0.00 82 1030.7
20260510080046 57 151 0.0 0.0 0.00 0.00 0.00 81 1030.5
20260510074547 57 151 0.0 0.0 0.00 0.00 0.00 81 1030.5
20260510073047 57 151 0.0 2.0 0.00 0.00 0.00 81 1030.3
20260510071552 57 141 0.0 1.0 0.00 0.00 0.00 81 1030.2
20260510070044 57 140 0.0 3.0 0.00 0.00 0.00 80 1030.2
20260510064544 57 152 0.0 4.0 0.00 0.00 0.00 79 1030.1
20260510063043 58 159 2.0 7.0 0.00 0.00 0.00 79 1030.0
20260510061543 58 148 0.0 4.0 0.00 0.00 0.00 77 1030.0
20260510060042 58 146 2.0 5.0 0.00 0.00 0.00 77 1029.9
20260510054542 58 163 3.0 7.0 0.00 0.00 0.00 78 1029.8
20260510053056 59 143 3.0 7.0 0.00 0.00 0.00 78 1029.8
20260510051547 59 117 1.0 3.0 0.00 0.00 0.00 74 1029.8
20260510050044 59 128 2.0 5.0 0.00 0.00 0.00 72 1029.6
20260510044539 60 116 0.0 5.0 0.00 0.00 0.00 70 1029.4
20260510043047 60 149 1.0 4.0 0.00 0.00 0.00 67 1029.5
20260510041539 60 150 0.0 0.0 0.00 0.00 0.00 67 1029.5
20260510040041 60 152 0.0 3.0 0.00 0.00 0.00 67 1029.6
20260510034535 60 181 0.0 0.0 0.00 0.00 0.00 69 1029.7
20260510033031 60 160 0.0 3.0 0.00 0.00 0.00 69 1029.7
20260510031527 60 162 0.0 1.0 0.00 0.00 0.00 70 1029.8
20260510030026 59 147 0.0 4.0 0.00 0.00 0.00 71 1030.0
20260510024525 59 113 1.0 3.0 0.00 0.00 0.00 72 1030.2
20260510023024 59 155 1.0 4.0 0.00 0.00 0.00 72 1030.4
20260510021536 59 132 0.0 4.0 0.00 0.00 0.00 68 1030.5
20260510020023 59 160 0.0 1.0 0.00 0.00 0.00 69 1030.7
20260510014526 59 131 0.0 4.0 0.00 0.00 0.00 68 1030.9
20260510013025 59 253 0.0 3.0 0.00 0.00 0.00 68 1031.1
20260510011518 59 147 0.0 4.0 0.00 0.00 0.00 68 1031.1
20260510010015 58 100 1.0 3.0 0.00 0.00 0.00 70 1031.1
20260510004512 58 177 0.0 1.0 0.00 0.00 0.00 76 1031.2
20260510003008 57 275 0.0 7.0 0.00 0.00 0.00 80 1031.3
20260510001508 56 275 1.0 4.0 0.00 0.00 0.00 84 1031.3
20260510000003 55 269 2.0 4.0 0.00 0.00 0.00 86 1031.3
20260509234600 54 289 2.0 4.0 0.00 0.00 0.00 89 1031.3
20260509233059 54 269 3.0 6.0 0.00 0.00 0.00 91 1031.3
20260509231557 53 284 2.0 6.0 0.00 0.00 0.00 91 1031.3
20260509230057 53 269 2.0 5.0 0.00 0.00 0.00 91 1031.3
20260509224557 53 308 2.0 5.0 0.00 0.00 0.00 91 1031.2
20260509223056 52 271 2.0 4.0 0.00 0.00 0.00 91 1031.1
20260509221554 52 261 2.0 3.0 0.00 0.00 0.00 91 1031.0
20260509220051 52 269 2.0 3.0 0.00 0.00 0.00 91 1030.8
20260509214602 51 274 2.0 4.0 0.00 0.00 0.00 91 1030.6
20260509213045 51 276 1.0 3.0 0.00 0.00 0.00 91 1030.3
20260509211543 51 266 2.0 4.0 0.00 0.00 0.00 91 1030.1
20260509210045 51 268 2.0 5.0 0.00 0.00 0.00 91 1030.1
20260509204542 51 281 1.0 4.0 0.00 0.00 0.00 91 1029.9
20260509203043 51 281 1.0 4.0 0.00 0.00 0.00 91 1029.8
20260509201536 52 284 1.0 3.0 0.00 0.00 0.00 91 1029.7
20260509200032 52 283 1.0 3.0 0.00 0.00 0.00 91 1029.6
20260509194533 52 271 1.0 4.0 0.00 0.00 0.00 91 1029.5
20260509193031 52 278 1.0 3.0 0.00 0.00 0.00 90 1029.2
20260509191538 52 281 2.0 4.0 0.00 0.00 0.00 90 1029.0
20260509190029 53 274 1.0 4.0 0.00 0.00 0.00 90 1028.9
20260509184534 53 273 1.0 5.0 0.00 0.00 0.00 90 1028.8
20260509183029 53 276 1.0 3.0 0.00 0.00 0.00 90 1028.8
20260509181520 53 274 1.0 5.0 0.00 0.00 0.00 90 1028.6
20260509180020 53 268 2.0 4.0 0.00 0.00 0.00 90 1028.6